AO-07 1 07530U 74089B 26266.28292833 -.00000028 00000-0 11332-3 0 9996 2 07530 101.9918 280.5545 0011976 305.0856 65.6750 12.53699684372819 UO-11 1 14781U 84021B 26266.14220635 .00000924 00000-0 99135-4 0 9997 2 14781 97.8187 230.6994 0006612 210.5320 149.5514 14.91007591271729 LO-19 1 20442U 90005G 26266.06654030 .00000054 00000-0 35963-4 0 9991 2 20442 98.8817 290.5531 0010478 279.9307 80.0694 14.34145276916423 AO-27 1 22825U 93061C 26266.17220763 .00000044 00000-0 33501-4 0 9992 2 22825 98.6786 333.5028 0008653 165.7599 194.3829 14.30962611721013 FO-29 1 24278U 96046B 26266.27268959 -.00000005 00000-0 31504-4 0 9991 2 24278 98.5160 101.6958 0349486 201.7384 156.8609 13.53278553486435 GO-32 1 25397U 98043D 26265.56109829 .00000036 00000-0 35696-4 0 9993 2 25397 99.0161 260.8164 0000639 351.9939 8.1229 14.24443787465199 ISS 1 25544U 98067A 26266.17434351 .00008083 00000-0 15342-3 0 9997 2 25544 51.6317 175.1352 0004730 170.7326 189.3751 15.49240021586943 NO-44 1 26931U 01043C 26265.59258282 .00000047 00000-0 48524-4 0 9999 2 26931 67.0531 352.3307 0005862 273.1777 86.8654 14.31985604304390 SO-50 1 27607U 02058C 26265.18448791 .00000558 00000-0 83642-4 0 9995 2 27607 64.5525 188.8355 0071556 244.6308 114.7378 14.83222800278840 CO-55 1 27844U 03031E 26265.96102522 .00000184 00000-0 98658-4 0 9993 2 27844 98.6773 273.3081 0008394 260.9145 99.1085 14.24384590205595 RS-22 1 27939U 03042A 26266.34509582 .00000226 00000-0 42965-4 0 9997 2 27939 98.3481 93.5079 0010584 323.3690 158.0119 14.73608189230009 CO-65 1 32785U 08021C 26266.26655422 .00003189 00000-0 19904-3 0 9997 2 32785 97.8386 249.8415 0010257 60.7809 299.4444 15.10221230999994 CO-66 1 32791U 08021J 26265.96266494 .00014286 00000-0 41240-3 0 9995 2 32791 97.7570 268.7914 0001982 25.5903 334.5438 15.35796292 2270 RS-30 1 32953U 08025A 26266.28173277 .00000005 00000-0 -37019-4 0 9996 2 32953 82.5012 294.4294 0020730 97.6162 262.7273 12.43182953831884 SRMSAT 1 37841U 11058D 26266.11920302 .00000355 00000-0 48586-4 0 9996 2 37841 19.9708 186.6955 0011792 200.7996 188.9853 14.11593942771671 ZACUBE-1 1 39417U 13066B 26265.43824777 .00003305 00000-0 25405-3 0 9993 2 39417 97.8161 228.2913 0038694 287.2544 72.4448 15.01861170695321 Delfi-N3xt 1 39428U 13066N 26266.25820125 .00004311 00000-0 36923-3 0 9994 2 39428 97.8292 186.5267 0071126 239.4524 119.9665 14.96153043689282 GOMX-1 1 39430U 13066Q 26266.30015218 .00001029 00000-0 15933-3 0 9993 2 39430 97.6436 100.5790 0129128 121.7381 239.6486 14.69716194684323 LO-74 1 39440U 13066AA 26265.57594945 .00002250 00000-0 20811-3 0 9999 2 39440 97.8992 215.0476 0058405 64.8924 295.8341 14.94305688691530 AO-73 1 39444U 13066AE 26265.66174015 .00004674 00000-0 28288-3 0 9993 2 39444 97.8392 239.2888 0033785 229.8086 130.0185 15.10667456694373 DTUSAT-2 1 40030U 14033W 26266.14946448 .00005032 00000-0 26510-3 0 9997 2 40030 98.0922 270.2127 0006029 257.9444 102.1112 15.16097938667525 LILACSAT-2 1 40908U 15049K 26266.33969874 .00013818 00000-0 21116-3 0 9996 2 40908 97.4555 307.0786 0004735 242.9886 117.0884 15.54520527610986 Lapan A3 1 41603U 16040E 26266.27350476 .00002495 00000-0 78920-4 0 9991 2 41603 97.1573 259.2774 0011028 32.8658 327.3269 15.33638307569841 CAS-2T 1 41847U 16066G 26266.23518203 .00000952 00000-0 14220-3 0 9997 2 41847 98.3747 340.8385 0341005 191.8124 167.4921 14.44856057518956 TechnoSat 1 42829U 17042E 26265.70608878 .00002660 00000-0 18876-3 0 9991 2 42829 97.4411 59.7635 0018699 118.9400 241.3706 15.05439999501377 AO-91 1 43017U 17073E 26266.06654944 .00006005 00000-0 25591-3 0 9999 2 43017 97.4543 131.2820 0146762 350.9539 8.9052 15.14013021480190 S-Net D 1 43186U 18014G 26265.68454388 .00003659 00000-0 18615-3 0 9990 2 43186 97.5249 169.8589 0009394 48.5392 311.6646 15.17431783473542 S-Net B 1 43187U 18014H 26265.69798484 .00003500 00000-0 17834-3 0 9997 2 43187 97.5254 169.8614 0009915 44.3332 315.8693 15.17400343473541 S-Net A 1 43188U 18014J 26266.21042283 .00003623 00000-0 18429-3 0 9993 2 43188 97.5267 170.5985 0009771 43.4820 316.7182 15.17444486473626 S-Net C 1 43189U 18014K 26265.70245649 .00003407 00000-0 17370-3 0 9992 2 43189 97.5284 170.1833 0010977 37.5280 322.6718 15.17390541472091 Ten-Koh 1 43677U 18084G 26265.78168156 .00001070 00000-0 83892-4 0 9993 2 43677 98.0710 102.2741 0009919 145.6370 214.5498 15.03258569430829 PO-101 1 43678U 18084H 26266.32337056 .00000918 00000-0 77519-4 0 9991 2 43678 98.1170 106.8517 0012207 199.8446 160.2303 15.00745241430930 QO-100 1 43700U 18090A 26265.84793078 .00000000 00000-0 00000-0 0 9999 2 43700 0.0264 165.0094 0001223 17.8751 149.8479 1.00270447 28658 MinXSS-2 1 43758U 18099A 26266.26499957 .00035833 00000-0 55612-3 0 9991 2 43758 97.4446 345.8732 0005614 254.8126 105.2506 15.53888219429328 AO-95 1 43770U 18099N 26266.13376393 .00007285 00000-0 26475-3 0 9994 2 43770 97.4287 326.0923 0008185 12.7030 347.4415 15.28546068428175 SNUSat 2 1 43782U 18099AA 26266.12913634 .00004772 00000-0 20501-3 0 9993 2 43782 97.3963 318.0422 0008662 318.6377 41.4203 15.23121860427938 SnugLite 1 43784U 18099AC 26266.10403801 .00008053 00000-0 28869-3 0 9994 2 43784 97.3773 319.4938 0001367 332.0345 28.0821 15.28985093428272 ITASat 1 1 43786U 18099AE 26265.67584866 .00004386 00000-0 20589-3 0 9994 2 43786 97.3933 315.2588 0012506 19.5363 340.6349 15.20090341427712 EAGLET 1 1 43790U 18099AJ 26266.11537977 .00002171 00000-0 12452-3 0 9990 2 43790 97.4136 313.1768 0011256 15.7275 344.4304 15.13550042427142 ESEO 1 43792U 18099AL 26266.02363046 .00000804 00000-0 61520-4 0 9998 2 43792 97.3906 299.1977 0012028 8.7272 351.4161 15.04486204426517 JO-97 1 43803U 18099AX 26266.13188060 .00011989 00000-0 33853-3 0 9997 2 43803 97.4032 329.4546 0003817 278.7630 81.3182 15.36514536428657 Suomi 100 1 43804U 18099AY 26265.68903286 .00008312 00000-0 28485-3 0 9993 2 43804 97.4089 325.8057 0007943 297.6399 62.4035 15.30425527428329 ISAT 1 43879U 18111D 26264.79202454 .00774757 30158-3 11826-2 0 9993 2 43879 97.5695 209.3864 0010269 144.5257 215.6708 16.04382360426400 UWE-4 1 43880U 18111E 26266.27048751 .00030318 00000-0 49906-3 0 9997 2 43880 97.5814 199.6180 0005295 358.1844 1.9388 15.52286757425960 Prox-1 1 44339U 19036A 26266.05822457 .00010796 00000-0 99415-3 0 9991 2 44339 23.9935 179.4032 0005556 93.8331 266.2804 14.92652020388109 Taurus 1 1 44530U 19059C 26266.29443767 .00003668 00000-0 58028-3 0 9993 2 44530 98.6496 77.3365 0008485 9.8859 350.2512 14.72943352373084 TO-108 1 44881U 19093C 26266.24955645 .00000165 00000-0 24593-4 0 9998 2 44881 97.7449 336.0501 0014763 120.6958 239.5715 14.86641233365988 RS-44 1 44909U 19096E 26266.04206607 .00000031 00000-0 88302-4 0 9997 2 44909 82.5166 274.6798 0216326 275.6253 82.0216 12.79749467314866 SALSAT 1 46495U 20068K 26266.15467235 .00005112 00000-0 17338-3 0 9993 2 46495 97.8888 275.2981 0008236 327.8914 32.1823 15.31009569330346 CSS (TIANHE-1) 1 48274U 21035A 26266.29077513 .00014394 00000-0 17534-3 0 9996 2 48274 41.4677 86.3135 0002355 302.0667 57.9942 15.60215087308485 TeikyoSat 4 1 49396U 21102B 26266.01945777 .00001300 00000-0 84153-4 0 9998 2 49396 97.3624 291.6913 0010847 322.7998 37.2480 15.09791166267481 Z-Sat 1 49399U 21102E 26266.31173427 .00002280 00000-0 11225-3 0 9996 2 49399 97.3260 298.6611 0014583 264.0844 95.8728 15.18891320268334 KOSEN 1 1 49402U 21102H 26266.07972931 .00005015 00000-0 18583-3 0 9994 2 49402 97.3103 306.3698 0012287 214.3079 145.7368 15.28014277268967 HO-113 1 50466U 21131B 26266.28011462 .00000258 00000-0 93317-4 0 9997 2 50466 98.4969 358.1340 0004635 150.1554 209.9900 14.41430175249241 SNUGLITE 2 1 52899U 22065F 26265.67015281 .00000610 00000-0 12430-3 0 9999 2 52899 98.2346 50.4171 0008662 80.2769 279.9412 14.64495223225260 UmKA 1 (RS40S) 1 57172U 23091G 26266.29594403 .00004038 00000-0 18091-3 0 9992 2 57172 97.4951 324.6242 0013671 132.6226 227.6165 15.21743202178925 CubeBel-2 (EU11S) 1 57175U 23091K 26266.27037247 .00008849 00000-0 29536-3 0 9991 2 57175 97.4954 330.4596 0010636 123.7586 236.4670 15.31237983179303 RS-38S 1 57189U 23091Z 26266.29508017 .00012579 00000-0 32919-3 0 9990 2 57189 97.5005 337.8997 0007932 83.6346 276.5802 15.38842413179764 SONATE-2 1 59112U 24043Q 26265.86741229 .00046998 00000-0 44846-3 0 9996 2 59112 97.5615 62.9006 0005326 196.6408 163.4678 15.66622992143142 GRBBeta 1 60237U 24128C 26266.29291179 .00002310 00000-0 16588-3 0 9994 2 60237 61.9885 231.9016 0026207 156.2689 203.9619 15.07212362121051 Curium One 1 60242U 24128H 26265.57720456 .00004904 00000-0 28136-3 0 9998 2 60242 61.9772 220.5034 0025550 150.0523 210.2041 15.13699403121192 ROBUSTA-3A 1 60243U 24128J 26265.59876427 .00004216 00000-0 24974-3 0 9993 2 60243 61.9850 223.4540 0027477 147.3714 212.9087 15.12778120121153 CatSat 1 60246U 24125J 26266.07895335 .00116037 00000-0 82771-3 0 9990 2 60246 97.1937 120.7621 0015270 167.6071 192.5572 15.73296959122707 AO-123 1 61781U 24199AY 26266.25516137 .00005473 00000-0 15343-3 0 9998 2 61781 97.2835 134.0464 0012162 323.1459 36.8948 15.36940691148982 LASARsat 1 62391U 24247Q 26264.88106215 .00033279 00000-0 53318-3 0 9998 2 62391 44.9720 76.3897 0009919 243.9896 115.9975 15.52514070 98316 CroCube 1 62394U 24247T 26263.89520826 .00038917 00000-0 55900-3 0 9992 2 62394 44.9695 77.3471 0010500 248.1402 111.8375 15.55439305 98215 JINJUSat 1B 1 63210U 25052A 26265.93362521 .00013171 00000-0 37423-3 0 9993 2 63210 97.3862 162.9447 0005289 91.9764 268.2085 15.36288911 85099 NUSHSAT 1 1 63211U 25052B 26266.18593093 .00015715 00000-0 40127-3 0 9993 2 63211 97.3834 164.1558 0005055 94.2538 265.9285 15.39557625 85205 TEVEL2-4 1 63213U 25052D 26266.14763207 .00013298 00000-0 36010-3 0 9997 2 63213 97.3756 162.8516 0004657 103.8078 256.3685 15.37786875 85153 TEVEL2-5 1 63214U 25052E 26265.66021251 .00014210 00000-0 38764-3 0 9993 2 63214 97.3754 162.2786 0004516 105.4492 254.7252 15.37544458 85079 TEVEL2-6 1 63215U 25052F 26265.93501761 .00014851 00000-0 40529-3 0 9996 2 63215 97.3757 162.5396 0004435 105.7661 254.4073 15.37522480 85118 TEVEL2-1 1 63217U 25052H 26266.19705599 .00012931 00000-0 36069-3 0 9993 2 63217 97.3733 162.3010 0004464 114.0287 246.1425 15.36872984 85131 TEVEL2-3 1 63218U 25052J 26265.66655120 .00013905 00000-0 38685-3 0 9997 2 63218 97.3735 161.8065 0004187 113.8837 246.2847 15.36938132 85056 TEVEL2-2 1 63219U 25052K 26265.67572047 .00013598 00000-0 37915-3 0 9998 2 63219 97.3732 161.7830 0004444 115.4552 244.7153 15.36874733 85050 TEVEL2-9 1 63237U 25052AD 26265.65653188 .00012258 00000-0 36727-3 0 9994 2 63237 97.3794 160.9089 0007058 137.9404 222.2382 15.34626582 84963 TEVEL2-7 1 63238U 25052AE 26266.17502864 .00011003 00000-0 33372-3 0 9997 2 63238 97.3797 161.2969 0007013 138.1398 222.0382 15.34268072 85037 TEVEL2-8 1 63239U 25052AF 26266.18408608 .00011204 00000-0 33985-3 0 9993 2 63239 97.3792 161.2807 0007081 136.3985 223.7819 15.34258127 85034 SPIRONE 1 66657U 25274H 26266.25921396 .00001162 00000-0 11458-3 0 9991 2 66657 97.7487 194.1681 0013291 52.2258 308.0164 14.93865811 44864 K-HERO 1 66660U 25274L 26266.03646219 .00001271 00000-0 12355-3 0 9997 2 66660 97.7496 194.1802 0015279 56.1600 304.1072 14.94261058 44842 SNUGLITE-III DURI 1 66661U 25274M 26265.75499096 .00001510 00000-0 14570-3 0 9992 2 66661 97.7492 193.9225 0015916 58.0753 302.2013 14.94265773 44801 SAKHACUBE-CHOLBON 1 67290U 25313AU 26266.27749560 .00006667 00000-0 25842-3 0 9999 2 67290 97.3855 340.1492 0009065 19.6962 340.4625 15.26434633 40936 RS95S (QMR-KWT-2) 1 67291U 25313AV 26266.15219766 .00009568 00000-0 34660-3 0 9998 2 67291 97.3854 340.4580 0008401 17.3861 342.7665 15.28561503 40942 Ten-Koh2 1 68261U 25241B 26265.89155272 .00004674 00000-0 19837-3 0 9999 2 68261 51.6560 214.2290 0008155 110.9482 249.2370 15.24942107 29814 JACK-002 1 68417U 26067B 26265.39921804 .00004387 00000-0 20433-3 0 9991 2 68417 97.4675 222.9164 0001017 14.6303 345.4962 15.20430081 26711 DISCO 2 1 68431U 26067R 26265.63030355 .00006188 00000-0 28747-3 0 9993 2 68431 97.4707 223.1480 0003346 51.2113 308.9421 15.20354200 26745 HADES-SA (SpinnyONE) 1 68446U 26067AG 26265.61425551 .00014049 00000-0 61602-3 0 9995 2 68446 97.4498 222.7137 0009036 93.9639 266.2630 15.22056945 26734 PARUS-6U1 1 68456U 26067AS 26265.41961511 .00004072 00000-0 20126-3 0 9996 2 68456 97.4661 222.4043 0007459 86.9544 273.2543 15.18388546 26689 SAL-E 1 68458U 26067AU 26265.58617512 .00005237 00000-0 25360-3 0 9994 2 68458 97.4584 222.4682 0007757 93.2012 267.0110 15.18965135 26716 FSI-SAT 2 1 68792U 26088A 26265.68179217 .00003368 00000-0 22549-3 0 9993 2 68792 97.5204 52.6211 0015319 130.8116 229.4444 15.07489971 22977 OrigamiSat 2 1 68795U 26088D 26265.65911514 .00008445 00000-0 51236-3 0 9993 2 68795 97.5185 53.1051 0015695 103.8210 256.4767 15.10675277 23001 ARICA 2 1 68796U 26088E 26265.38846300 .00002392 00000-0 15447-3 0 9993 2 68796 97.5194 52.6863 0016855 104.3451 255.9651 15.09084041 22959 WASEDA-SAT-ZERO-II 1 68797U 26088F 26265.36130875 .00004762 00000-0 29955-3 0 9997 2 68797 97.5182 52.7148 0016343 104.1424 256.1622 15.09578096 22953 MANGARO-II-Piscus 1 68798U 26088G 26265.88437651 .00003086 00000-0 19628-3 0 9991 2 68798 97.5204 53.2674 0020232 105.3802 254.9664 15.09374373 23038 CO-128 1 69912U 26156AV 26265.72685571 .00001006 00000-0 10740-3 0 9991 2 69912 97.7469 164.7930 0001101 219.3188 140.7950 14.90959536 11533 MARINA 1 69920U 26156BD 26265.93365239 .00001602 00000-0 16276-3 0 9991 2 69920 97.7435 165.1079 0005882 255.2687 104.7880 14.92186890 11570 IO-86 1 40931U 26199.45381863 .00000000 00000-0 77536-4 0 07 2 40931 6.0006 322.6653 0012733 338.8432 273.6875 14.79294310 03 LILIUM-4 1 71922C 26067AC 26089.50133053 -.00014632 00000 0 -74472-3 0 04 2 71922 97.4497 49.1617 0004341 5.9603 355.7042 15.16896692 16